map of MLH home
MLH - Airport
Location
City:  Basel/Mulhouse/Freiburg, Alsace, France
Near (Alt.):Mulhouse
Name:EuroAirport
ICAO:LFSB
IATA:MLH

Details
Type:Airport (Aerodrome, Airfield)
Use:Public/Civil, International (customs port of entry)
Latitude:4735'24"N (47.590000)
Longitude:731'45"E (7.529167)
Elevation:885 ft (270 m)
Variation:2.15E (WMM2015 magnetic declination)
0.12 annual change
Runways:3
Longest:12795 × 197 ft (3900 × 60 m), paved

Time
Time Zone:UTC+1 (DST+2)
Local Time:

Weather
METAR:LFSB 212300Z AUTO 35014KT 9999 BKN054 16/04 Q1022 NOSIG
TAF:LFSB 212300Z 2200/2224 36010KT CAVOK
TEMPO 2200/2216 36012G22KT
TEMPO 2220/2224 VRB03KT

Related Locations
Nearby:
Farthest:CHT: 12109 mi / 19487 km
Waitangi [Tuuta], CIT, NZ

Find:

   beyond  
but within

Other Information
Maps:
NOTAMs:
Links:
Sources:

  
  • flag of France
  • flag of Alsace
  

Sectional Chart

Flight Planning
at skyvector.com

Satellite Image

Google Maps Satellite view

 

Copyright © 2004-2018 Karl L. Swartz. All rights reserved.
The Great Circle Mapper name and logo are trademarks of the Great Circle Mapper.
All other trademarks mentioned herein belong to their respective owners.
Please see credits for attibutions and further copyright information.

  Follow gcmap on Facebook Follow gcmap on Twitter Follow gcmap on Google+ GCmap on LinkedIn

hCard Microformat

Geo Microformat